Location: Lafig�re
(44.4503°N, 4.0357°E)
Time: 01:24:18
(UTC+00:00)

Transit 4A - Pass Details

Date: 27 January 2021
Orbit: 866 x 979 km, 66.8° (Epoch: 24 February)

Event Time Altitude Azimuth Distance (km) Brightness Sun altitude
Rises 18:05:37 0° 210° (SSW) 3,660 11.7 -14.2°
Reaches altitude 10° 18:08:10 10° 211° (SSW) 2,720 10.9 -14.7°
Maximum altitude 18:14:34 88° 298° (WNW) 983 8.0 -15.8°
Enters shadow 18:20:49 11° 32° (NNE) 2,664 9.9 -16.9°
Drops below altitude 10° 18:20:58 10° 32° (NNE) 2,717 - -16.9°
Sets 18:23:31 0° 33° (NNE) 3,656 - -17.4°
